Ogallala, NE

3:52 PM MDT on July 20, 2017 (GMT -0600)
Searle

Weather History for KOGA - January, 2013

Change the Weather History Date:

Wednesday, January 16, 2013

  Actual Average Record
Temperature  
Mean Temperature 40 °F -  
Max Temperature 48 °F 40 °F 67 °F (1951)
Min Temperature 31 °F 13 °F -11 °F (1957)
Degree Days  
Heating Degree Days 26    
Moisture  
Dew Point 24 °F    
Average Humidity 59    
Maximum Humidity 74    
Minimum Humidity 45    
Precipitation  
Precipitation 0.00 in - - ()
Sea Level Pressure  
Sea Level Pressure 30.13 in    
Wind  
Wind Speed 20 mph (NW)    
Max Wind Speed 30 mph    
Max Gust Speed 39 mph    
Visibility 10 miles    
Events      
Averages and records for this station are not official NWS values.
T = Trace of Precipitation, MM = Missing Value Source: NWS Daily Summary

Daily Weather History Graph

Daily Weather History Graph

Search for Another Location

Airport or City:

Trip Planner

Search our weather history database for the weather conditions in past years. The results will help you decide how hot, cold, wet, or windy it might be!

Date:

Astronomy

Jan. 16, 2013 Rise Set
Actual Time 7:09 AM MST 4:44 PM MST
Civil Twilight 6:39 AM MST 5:15 PM MST
Nautical Twilight 6:05 AM MST 5:48 PM MST
Astronomical Twilight 5:32 AM MST 6:21 PM MST
Moon 9:43 AM MST (1/16) 10:42 PM MST (1/16)
Length of Visible Light 10h 35m
Length of Day
9h 35m
Waxing Crescent, 29% of the Moon is Illuminated
Jan 16
Waxing Crescent
Jan 18
First Quarter
Jan 26
Full
Feb 3
Last Quarter
Feb 10
New

Hourly Weather History & Observations

Time (MST) Temp. Windchill Dew Point Humidity Pressure Visibility Wind Dir Wind Speed Gust Speed Precip Events Conditions
12:15 AM 33.3 °F 21.5 °F 24.3 °F 70% 29.99 in 10.0 mi NW 20.7 mph - N/A   Mostly Cloudy
12:35 AM 33.8 °F 22.8 °F 24.1 °F 68% 30.00 in 10.0 mi NW 18.4 mph 25.3 mph N/A   Overcast
12:55 AM 34.2 °F 23.0 °F 24.1 °F 67% 30.00 in 10.0 mi WNW 19.6 mph 26.5 mph N/A   Overcast
1:35 AM 33.8 °F 21.9 °F 23.7 °F 67% 30.01 in 10.0 mi WNW 21.9 mph 28.8 mph N/A   Overcast
2:15 AM 34.2 °F 23.0 °F 23.0 °F 64% 30.04 in 10.0 mi NW 19.6 mph - N/A   Overcast
2:35 AM 33.8 °F 22.2 °F 22.8 °F 64% 30.03 in 10.0 mi NW 20.7 mph 25.3 mph N/A   Overcast
2:55 AM 34.0 °F 22.4 °F 22.8 °F 64% 30.03 in 10.0 mi NW 20.7 mph 26.5 mph N/A   Overcast
3:15 AM 34.0 °F 22.4 °F 22.6 °F 63% 30.04 in 10.0 mi NW 20.7 mph 27.6 mph N/A   Overcast
3:35 AM 33.3 °F 20.3 °F 22.1 °F 64% 30.03 in 10.0 mi WNW 25.3 mph 32.2 mph N/A   Scattered Clouds
3:55 AM 33.1 °F 19.6 °F 21.9 °F 64% 30.03 in 10.0 mi WNW 27.6 mph 35.7 mph N/A   Clear
4:15 AM 33.1 °F 20.9 °F 21.6 °F 63% 30.04 in 10.0 mi NW 21.9 mph 31.1 mph N/A   Clear
4:35 AM 33.3 °F 21.2 °F 21.7 °F 63% 30.04 in 10.0 mi NW 21.9 mph - N/A   Scattered Clouds
4:55 AM 32.9 °F 21.6 °F 21.7 °F 64% 30.04 in 10.0 mi WNW 18.4 mph 23.0 mph N/A   Scattered Clouds
5:35 AM 33.3 °F 21.2 °F 21.2 °F 61% 30.04 in 10.0 mi NW 21.9 mph - N/A   Scattered Clouds
5:55 AM 32.5 °F 20.2 °F 21.2 °F 63% 30.04 in 10.0 mi NW 21.9 mph - N/A   Clear
6:15 AM 33.1 °F 20.6 °F 21.4 °F 62% 30.04 in 10.0 mi NW 23.0 mph 28.8 mph N/A   Clear
6:35 AM 33.1 °F 20.6 °F 21.0 °F 61% 30.05 in 10.0 mi NW 23.0 mph 28.8 mph N/A   Clear
6:55 AM 33.3 °F 20.9 °F 21.0 °F 61% 30.05 in 10.0 mi NW 23.0 mph 32.2 mph N/A   Clear
7:15 AM 32.9 °F 20.4 °F 21.0 °F 62% 30.06 in 10.0 mi NW 23.0 mph - N/A   Scattered Clouds
7:35 AM 34.7 °F 22.8 °F 21.4 °F 58% 30.06 in 10.0 mi NW 23.0 mph 31.1 mph N/A   Mostly Cloudy
7:55 AM 34.7 °F 23.4 °F 21.4 °F 58% 30.07 in 10.0 mi NW 20.7 mph - N/A   Overcast
8:15 AM 35.6 °F 24.2 °F 21.7 °F 57% 30.07 in 10.0 mi NW 21.9 mph - N/A   Mostly Cloudy
8:35 AM 35.8 °F 24.5 °F 21.6 °F 56% 30.09 in 10.0 mi NW 21.9 mph 27.6 mph N/A   Scattered Clouds
8:55 AM 37.6 °F 27.4 °F 21.9 °F 53% 30.09 in 10.0 mi NW 19.6 mph 26.5 mph N/A   Scattered Clouds
9:15 AM 38.3 °F 27.1 °F 22.1 °F 52% 30.08 in 10.0 mi NW 25.3 mph 32.2 mph N/A   Clear
9:35 AM 39.0 °F 28.0 °F 21.9 °F 50% 30.08 in 10.0 mi NW 25.3 mph 31.1 mph N/A   Clear
9:55 AM 39.2 °F 27.6 °F 21.9 °F 50% 30.10 in 10.0 mi NW 28.8 mph 34.5 mph N/A   Clear
10:15 AM 39.4 °F 27.9 °F 21.7 °F 49% 30.10 in 10.0 mi NW 28.8 mph 39.1 mph N/A   Clear
10:35 AM 40.1 °F 29.9 °F 22.1 °F 49% 30.10 in 10.0 mi NW 23.0 mph 31.1 mph N/A   Clear
10:55 AM 40.6 °F 29.6 °F 22.5 °F 48% 30.09 in 10.0 mi NW 28.8 mph 36.8 mph N/A   Clear
11:15 AM 41.4 °F 30.5 °F 23.4 °F 49% 30.08 in 10.0 mi NW 28.8 mph 35.7 mph N/A   Clear
11:35 AM 42.8 °F 32.5 °F 24.1 °F 48% 30.08 in 10.0 mi NW 28.8 mph 35.7 mph N/A   Clear
11:55 AM 43.7 °F 33.9 °F 24.4 °F 47% 30.08 in 10.0 mi NW 27.6 mph 35.7 mph N/A   Clear
12:15 PM 44.1 °F 34.0 °F 24.3 °F 46% 30.08 in 10.0 mi NW 29.9 mph 36.8 mph N/A   Clear
12:35 PM 44.1 °F 34.6 °F 25.0 °F 47% 30.09 in 10.0 mi NW 26.5 mph 34.5 mph N/A   Clear
1:15 PM 45.0 °F 36.6 °F 25.2 °F 46% 30.10 in 10.0 mi NW 21.9 mph 31.1 mph N/A   Clear
1:35 PM 45.7 °F 37.1 °F 26.2 °F 47% 30.11 in 10.0 mi NW 24.2 mph 28.8 mph N/A   Clear
1:55 PM 46.8 °F - 27.0 °F 46% 30.10 in 10.0 mi NW 24.2 mph 32.2 mph N/A   Clear
2:15 PM 46.8 °F - 26.2 °F 45% 30.11 in 10.0 mi NW 19.6 mph 28.8 mph N/A   Clear
2:35 PM 46.8 °F - 27.0 °F 46% 30.12 in 10.0 mi NW 20.7 mph 26.5 mph N/A   Clear
2:55 PM 47.7 °F - 27.1 °F 45% 30.12 in 10.0 mi NW 24.2 mph 28.8 mph N/A   Clear
3:15 PM 48.4 °F - 27.7 °F 45% 30.13 in 10.0 mi NNW 18.4 mph 25.3 mph N/A   Clear
3:35 PM 47.5 °F - 26.8 °F 45% 30.15 in 10.0 mi NNW 18.4 mph 25.3 mph N/A   Clear
3:55 PM 46.6 °F - 27.5 °F 47% 30.16 in 10.0 mi NNW 18.4 mph 23.0 mph N/A   Clear
4:15 PM 45.0 °F 37.6 °F 27.9 °F 51% 30.17 in 10.0 mi NNW 17.3 mph - N/A   Clear
4:55 PM 40.3 °F 33.4 °F 28.0 °F 62% 30.18 in 10.0 mi NNW 11.5 mph - N/A   Clear
5:15 PM 38.8 °F 31.6 °F 28.0 °F 65% 30.19 in 10.0 mi NNW 11.5 mph - N/A   Clear
5:35 PM 37.6 °F 30.0 °F 27.9 °F 68% 30.20 in 10.0 mi NW 11.5 mph - N/A   Clear
5:55 PM 36.5 °F 29.2 °F 27.9 °F 71% 30.22 in 10.0 mi NW 10.4 mph - N/A   Clear
6:15 PM 37.0 °F 28.9 °F 28.0 °F 70% 30.21 in 10.0 mi NNW 12.7 mph - N/A   Clear
6:35 PM 34.5 °F 26.2 °F 27.1 °F 74% 30.22 in 10.0 mi NW 11.5 mph - N/A   Clear
6:55 PM 36.1 °F 29.3 °F 26.2 °F 67% 30.23 in 10.0 mi NW 9.2 mph - N/A   Clear
7:15 PM 35.6 °F 28.0 °F 26.6 °F 70% 30.23 in 10.0 mi NW 10.4 mph - N/A   Clear
7:35 PM 35.2 °F - 26.2 °F 70% 30.25 in 10.0 mi Calm Calm - N/A   Clear
7:55 PM 33.4 °F 26.6 °F 25.7 °F 73% 30.25 in 10.0 mi NW 8.1 mph - N/A   Clear
8:15 PM 34.7 °F 26.9 °F 25.5 °F 69% 30.26 in 10.0 mi NW 10.4 mph - N/A   Clear
8:35 PM 33.4 °F 27.3 °F 25.2 °F 72% 30.27 in 10.0 mi WSW 6.9 mph - N/A   Clear
8:55 PM 32.7 °F 26.4 °F 25.3 °F 74% 30.27 in 10.0 mi West 6.9 mph - N/A   Clear
9:15 PM 33.1 °F 30.0 °F 24.4 °F 71% 30.27 in 10.0 mi WNW 3.5 mph - N/A   Clear
9:35 PM 34.7 °F 25.1 °F 24.1 °F 65% 30.27 in 10.0 mi NW 15.0 mph - N/A   Clear
9:55 PM 35.2 °F 24.7 °F 23.2 °F 62% 30.27 in 10.0 mi NW 18.4 mph - N/A   Clear
10:15 PM 35.6 °F 25.2 °F 22.6 °F 59% 30.27 in 10.0 mi NW 18.4 mph - N/A   Clear
10:35 PM 35.6 °F 25.9 °F 21.7 °F 57% 30.28 in 10.0 mi NW 16.1 mph - N/A   Clear
10:55 PM 34.5 °F 28.6 °F 21.6 °F 59% 30.30 in 10.0 mi WSW 6.9 mph - N/A   Clear
11:15 PM 31.8 °F 28.5 °F 21.7 °F 66% 30.30 in 10.0 mi WSW 3.5 mph - N/A   Clear
11:35 PM 32.5 °F 24.8 °F 21.7 °F 64% 30.31 in 10.0 mi West 9.2 mph - N/A   Clear
11:55 PM 31.8 °F 25.4 °F 21.0 °F 64% 30.32 in 10.0 mi WSW 6.9 mph - N/A   Clear